{"data":{"norad_id":54148,"intl_designator":"2022-138AM","name":"ONEWEB-0536","alt_names":[],"object_type":"PAYLOAD","status":"ACTIVE","operator":null,"country":"UK","launch_date":"2022-10-22","launch_site_code":"SRILR","launch_vehicle":null,"mission":null,"orbit_class":"UNKNOWN","rcs_meters":null,"size_class":null,"mass_kg":null,"dimensions":null,"purposes":["comms"],"wikipedia_slug":null,"has_3d_model":false,"image_url":null,"decayed_at":null,"tle_current":{"epoch":"2026-05-24T21:16:29.228160Z","epoch_age_seconds":80976,"freshness":"FRESH","line1":"1 54148U 22138AM  26144.88644940 -.00000005  00000+0 -43082-4 0  9995","line2":"2 54148  87.9163 279.1060 0002248 126.0760 234.0582 13.20772315176224","mean_motion":13.20772315,"eccentricity":0.0002248,"inclination_deg":87.9163,"raan_deg":279.106,"arg_perigee_deg":126.076,"mean_anomaly_deg":234.0582,"bstar":-4.3082e-5,"rev_number":17622,"period_min":109.02711872788,"perigee_km":1180.0719894732,"apogee_km":1183.4709243154,"semimajor_km":7559.9084568943,"source":"CELESTRAK","updated_at":"2026-05-25T13:38:22.592543Z"}}}